Flag for China Weather past 2 weeks in Zhengzhou, Henan, China

Now
73 °F

Fog.


Feels Like: 73 °F
Forecast: 69 / 95 °F
Wind: 3 mph from South

Location: Zhengzhou Airport

Current Time: Aug 21, 2014 at 5:00:22 AM

Latest Report: Aug 21, 2014 at 4:00 AM


Visibility: 2 mi

Pressure: 29.77 "Hg

Humidity: 83%

Dew point: 68 °F

Location of ZhengzhouLocation

Historic Weather in Zhengzhou — Graph

°F

Zhengzhou temperature yesterday

Maximum temperature yesterday: 88 °F (at 4:00 PM)
Minimum temperature yesterday: 66 °F (at 3:00 AM)
Average temperature yesterday: 77 °F

Past Weeks' High & Low Weather Summary

 TemperatureHumidityPressure
High93 °F (Aug 15, 2:00 PM)100% (Aug 7, 3:00 AM)29.95 "Hg (Aug 7, 3:00 AM)
Low61 °F (Aug 9, 7:00 AM)28% (Aug 15, 2:00 PM)29.65 "Hg (Aug 10, 3:00 PM)
Average75 °F76%29.79 "Hg
* Reported Aug 6 4:00 AM — Aug 21 4:00 AM, Zhengzhou, Weather by CustomWeather, © 2014

Note: Actual official high and low records may vary slightly from our data, if they occured in-between our weather recording intervals... More about our weather records

Advertising

Zhengzhou weather history for previous 24 hours

 ConditionsComfort  
Time TempWeatherWind HumidityBarometerVisibility
4:00 AM
Aug 21
73 °FFog.3 mph83%29.77 "Hg2 mi
3:00 AM73 °FFog.3 mph83%29.77 "Hg2 mi
2:00 AM75 °FFog.3 mph78%29.80 "Hg2 mi
1:00 AM73 °FFog.1 mph89%29.80 "Hg2 mi
12:00 AM75 °FHaze.3 mph74%29.80 "Hg2 mi
11:00 PM
Aug 20
77 °FHaze.3 mph65%29.80 "Hg3 mi
10:00 PM77 °FHaze.3 mph65%29.83 "Hg3 mi
9:00 PM77 °FHaze.1 mph65%29.80 "Hg3 mi
8:00 PM79 °FClear.1 mph61%29.80 "Hg4 mi
7:00 PM81 °FClear.3 mph58%29.80 "Hg5 mi
6:00 PM84 °FClear.3 mph51%29.80 "Hg5 mi
5:00 PM86 °FClear.6 mph46%29.80 "Hg5 mi
4:00 PM88 °FClear.6 mph40%29.80 "Hg4 mi
3:00 PM86 °FClear.6 mph46%29.80 "Hg4 mi
2:00 PM86 °FHaze.6 mph49%29.83 "Hg3 mi
1:00 PM86 °FHaze.6 mph46%29.86 "Hg3 mi
12:00 PM84 °FHaze.3 mph48%29.89 "Hg3 mi
11:00 AM82 °FHaze.1 mph48%29.92 "Hg2 mi
10:00 AM81 °FHaze.1 mph54%29.92 "Hg2 mi
9:00 AM79 °FHaze.1 mph61%29.92 "Hg1 mi
8:00 AM75 °FFog.3 mph78%29.92 "Hg1 mi
7:00 AM70 °FFog.No wind94%29.92 "Hg1 mi
6:00 AM66 °FFog.No wind94%29.89 "Hg1 mi
5:00 AM66 °FFog.1 mph100%29.89 "Hg1 mi
Weather by CustomWeather, © 2014

See weather overviewHow to use our weather pages